| time (UTC) | temp F | wind direction | speed MPH | gust MPH | rain 1hr in | rain 24hr in | rain mn in | humidity % | barometer mb |
| 20260906123030 | 65 | 143 | 0.0 | 2.0 | 0.00 | 2.01 | 0.00 | 98 | 1017.2 |
| 20260906122904 | 65 | 143 | 1.0 | 2.0 | 0.00 | 2.01 | 0.00 | 96 | 1016.3 |
| 20260906122403 | 65 | 143 | 1.0 | 2.0 | 0.00 | 2.01 | 0.00 | 100 | 1016.2 |
| 20260906121903 | 65 | 143 | 1.0 | 3.0 | 0.00 | 2.01 | 0.00 | 100 | 1016.2 |
| 20260906121538 | 64 | 143 | 0.0 | 3.0 | 0.00 | 2.01 | 0.00 | 98 | 1017.0 |
| 20260906121404 | 65 | 143 | 1.0 | 3.0 | 0.00 | 2.01 | 0.00 | 100 | 1016.2 |
| 20260906120903 | 65 | 143 | 1.0 | 3.0 | 0.00 | 2.01 | 0.00 | 100 | 1016.1 |
| 20260906120030 | 64 | 143 | 0.0 | 0.0 | 0.00 | 2.02 | 0.00 | 98 | 1016.9 |
| 20260906115904 | 65 | 143 | 0.0 | 0.0 | 0.00 | 2.02 | 0.00 | 100 | 1016.1 |
| 20260906115404 | 65 | 143 | 0.0 | 1.0 | 0.00 | 2.04 | 0.00 | 100 | 1016.1 |
| 20260906114903 | 65 | 143 | 1.0 | 2.0 | 0.00 | 2.04 | 0.00 | 100 | 1016.0 |
| 20260906114540 | 64 | 143 | 0.0 | 3.0 | 0.00 | 2.04 | 0.00 | 99 | 1016.8 |
| 20260906114404 | 65 | 143 | 1.0 | 3.0 | 0.00 | 2.04 | 0.00 | 100 | 1015.9 |
| 20260906113904 | 65 | 143 | 2.0 | 3.0 | 0.00 | 2.04 | 0.00 | 100 | 1015.8 |
| 20260906113403 | 65 | 172 | 0.0 | 0.0 | 0.00 | 2.04 | 0.00 | 100 | 1015.6 |
| 20260906113036 | 64 | 172 | 0.0 | 0.0 | 0.00 | 2.04 | 0.00 | 99 | 1016.5 |
| 20260906112904 | 65 | 172 | 0.0 | 0.0 | 0.00 | 2.04 | 0.00 | 100 | 1015.6 |
| 20260906112404 | 65 | 217 | 0.0 | 0.0 | 0.00 | 2.04 | 0.00 | 100 | 1015.5 |
| 20260906111904 | 64 | 217 | 0.0 | 0.0 | 0.00 | 2.04 | 0.00 | 100 | 1015.5 |
| 20260906111527 | 64 | 217 | 0.0 | 0.0 | 0.00 | 2.04 | 0.00 | 99 | 1016.3 |
| 20260906111404 | 64 | 217 | 0.0 | 0.0 | 0.00 | 2.04 | 0.00 | 100 | 1015.4 |
| 20260906110903 | 64 | 173 | 0.0 | 0.0 | 0.00 | 2.04 | 0.00 | 100 | 1015.3 |
| 20260906110403 | 64 | 148 | 0.0 | 0.0 | 0.00 | 2.04 | 0.00 | 100 | 1015.3 |
| 20260906110027 | 64 | 148 | 0.0 | 0.0 | 0.00 | 2.04 | 0.00 | 99 | 1016.1 |
| 20260906105903 | 64 | 148 | 0.0 | 0.0 | 0.00 | 2.04 | 0.00 | 100 | 1015.3 |
| 20260906105403 | 65 | 148 | 0.0 | 0.0 | 0.00 | 2.04 | 0.00 | 100 | 1015.3 |
| 20260906104904 | 65 | 148 | 0.0 | 0.0 | 0.00 | 2.04 | 0.00 | 100 | 1015.2 |
| 20260906104531 | 64 | 148 | 0.0 | 0.0 | 0.00 | 2.04 | 0.00 | 98 | 1016.1 |
| 20260906103903 | 65 | 148 | 0.0 | 0.0 | 0.00 | 2.04 | 0.00 | 100 | 1015.1 |
| 20260906103403 | 65 | 148 | 0.0 | 0.0 | 0.00 | 2.04 | 0.00 | 100 | 1015.1 |
| 20260906103031 | 64 | 148 | 0.0 | 0.0 | 0.00 | 2.04 | 0.00 | 99 | 1015.9 |
| 20260906102904 | 65 | 148 | 0.0 | 0.0 | 0.00 | 2.04 | 0.00 | 100 | 1015.0 |
| 20260906102404 | 65 | 148 | 0.0 | 0.0 | 0.00 | 2.04 | 0.00 | 100 | 1015.0 |
| 20260906101903 | 65 | 148 | 0.0 | 0.0 | 0.00 | 2.04 | 0.00 | 100 | 1015.0 |
| 20260906101519 | 64 | 148 | 0.0 | 0.0 | 0.00 | 2.04 | 0.00 | 99 | 1015.8 |
| 20260906101404 | 65 | 148 | 0.0 | 0.0 | 0.00 | 2.04 | 0.00 | 100 | 1015.1 |
| 20260906100404 | 65 | 148 | 0.0 | 0.0 | 0.00 | 2.04 | 0.00 | 100 | 1015.0 |
| 20260906100026 | 64 | 148 | 0.0 | 0.0 | 0.00 | 2.04 | 0.00 | 98 | 1015.8 |
| 20260906095904 | 65 | 148 | 0.0 | 0.0 | 0.00 | 2.04 | 0.00 | 100 | 1015.0 |
| 20260906095403 | 65 | 148 | 0.0 | 0.0 | 0.00 | 2.04 | 0.00 | 100 | 1015.0 |
| 20260906094904 | 65 | 148 | 0.0 | 0.0 | 0.00 | 2.04 | 0.00 | 100 | 1014.9 |
| 20260906094534 | 64 | 148 | 0.0 | 0.0 | 0.00 | 2.04 | 0.00 | 98 | 1015.6 |
| 20260906094404 | 65 | 148 | 0.0 | 0.0 | 0.00 | 2.04 | 0.00 | 100 | 1015.0 |
| 20260906093903 | 65 | 137 | 0.0 | 0.0 | 0.00 | 2.04 | 0.00 | 100 | 1015.0 |
| 20260906093404 | 65 | 137 | 0.0 | 0.0 | 0.00 | 2.04 | 0.00 | 100 | 1015.0 |
| 20260906093036 | 64 | 137 | 0.0 | 2.0 | 0.00 | 2.04 | 0.00 | 98 | 1015.8 |
| 20260906092904 | 65 | 137 | 0.0 | 0.0 | 0.00 | 2.04 | 0.00 | 100 | 1015.0 |
| 20260906092404 | 65 | 137 | 0.0 | 2.0 | 0.00 | 2.04 | 0.00 | 100 | 1014.9 |
| 20260906091904 | 65 | 286 | 0.0 | 0.0 | 0.00 | 2.04 | 0.00 | 100 | 1014.9 |
| 20260906091505 | 64 | 286 | 0.0 | 0.0 | 0.00 | 2.04 | 0.00 | 98 | 1015.7 |
| 20260906091403 | 65 | 286 | 0.0 | 0.0 | 0.00 | 2.04 | 0.00 | 100 | 1014.9 |
| 20260906090903 | 65 | 286 | 0.0 | 0.0 | 0.00 | 2.04 | 0.00 | 100 | 1014.9 |
| 20260906090403 | 65 | 286 | 0.0 | 0.0 | 0.00 | 2.04 | 0.00 | 100 | 1014.9 |
| 20260906090003 | 64 | 286 | 0.0 | 0.0 | 0.00 | 2.04 | 0.00 | 98 | 1015.8 |
| 20260906085904 | 65 | 286 | 0.0 | 0.0 | 0.00 | 2.04 | 0.00 | 100 | 1014.9 |
| 20260906085404 | 65 | 286 | 0.0 | 0.0 | 0.00 | 2.04 | 0.00 | 100 | 1014.9 |
| 20260906084904 | 65 | 286 | 0.0 | 0.0 | 0.00 | 2.04 | 0.00 | 100 | 1014.8 |
| 20260906084506 | 64 | 286 | 0.0 | 0.0 | 0.00 | 2.04 | 0.00 | 98 | 1015.7 |
| 20260906084404 | 65 | 286 | 0.0 | 0.0 | 0.00 | 2.04 | 0.00 | 100 | 1014.8 |
| 20260906083903 | 65 | 286 | 0.0 | 0.0 | 0.00 | 2.04 | 0.00 | 100 | 1014.8 |
| 20260906083404 | 65 | 286 | 0.0 | 0.0 | 0.00 | 2.04 | 0.00 | 100 | 1014.7 |
| 20260906083014 | 64 | 286 | 0.0 | 0.0 | 0.00 | 2.04 | 0.00 | 98 | 1015.6 |
| 20260906082903 | 65 | 286 | 0.0 | 0.0 | 0.00 | 2.04 | 0.00 | 100 | 1014.7 |
| 20260906082403 | 65 | 286 | 0.0 | 0.0 | 0.00 | 2.04 | 0.00 | 100 | 1014.7 |
| 20260906081903 | 65 | 286 | 0.0 | 0.0 | 0.00 | 2.04 | 0.00 | 100 | 1014.8 |
| 20260906081523 | 64 | 286 | 0.0 | 0.0 | 0.00 | 2.04 | 0.00 | 98 | 1015.6 |
| 20260906081404 | 65 | 286 | 0.0 | 0.0 | 0.00 | 2.04 | 0.00 | 100 | 1014.7 |
| 20260906080404 | 65 | 286 | 0.0 | 0.0 | 0.00 | 2.04 | 0.00 | 100 | 1014.7 |
| 20260906080004 | 64 | 286 | 0.0 | 1.0 | 0.00 | 2.04 | 0.00 | 98 | 1015.4 |
| 20260906075403 | 65 | 286 | 0.0 | 1.0 | 0.00 | 2.04 | 0.00 | 100 | 1014.6 |
| 20260906074904 | 65 | 286 | 0.0 | 0.0 | 0.00 | 2.04 | 0.00 | 100 | 1014.6 |
| 20260906074508 | 64 | 286 | 0.0 | 2.0 | 0.00 | 2.04 | 0.00 | 98 | 1015.4 |
| 20260906073903 | 65 | 286 | 1.0 | 2.0 | 0.00 | 2.04 | 0.00 | 100 | 1014.6 |
| 20260906073404 | 65 | 286 | 0.0 | 1.0 | 0.00 | 2.04 | 0.00 | 100 | 1014.6 |
| 20260906073008 | 64 | 286 | 0.0 | 2.0 | 0.00 | 2.04 | 0.00 | 98 | 1015.5 |
| 20260906072904 | 65 | 286 | 0.0 | 1.0 | 0.00 | 2.04 | 0.00 | 100 | 1014.7 |
| 20260906072403 | 65 | 286 | 1.0 | 2.0 | 0.00 | 2.04 | 0.00 | 100 | 1014.6 |
| 20260906071904 | 65 | 286 | 2.0 | 3.0 | 0.00 | 2.04 | 0.00 | 100 | 1014.7 |
| 20260906071515 | 64 | 280 | 0.0 | 3.0 | 0.00 | 2.04 | 0.00 | 98 | 1015.5 |
| 20260906071404 | 65 | 280 | 1.0 | 3.0 | 0.00 | 2.04 | 0.00 | 100 | 1014.6 |
| 20260906070403 | 65 | 274 | 1.0 | 2.0 | 0.00 | 2.04 | 0.00 | 100 | 1014.7 |
| 20260906070020 | 65 | 274 | 0.0 | 0.0 | 0.00 | 2.04 | 0.00 | 98 | 1015.6 |
| 20260906065904 | 65 | 274 | 0.0 | 0.0 | 0.00 | 2.04 | 0.00 | 100 | 1014.8 |
| 20260906065404 | 65 | 274 | 0.0 | 0.0 | 0.00 | 2.04 | 0.00 | 100 | 1014.8 |
| 20260906064903 | 65 | 274 | 0.0 | 0.0 | 0.00 | 2.04 | 0.00 | 100 | 1014.8 |
| 20260906064505 | 65 | 274 | 0.0 | 0.0 | 0.00 | 2.05 | 0.00 | 98 | 1015.6 |
| 20260906064403 | 65 | 274 | 0.0 | 0.0 | 0.00 | 2.05 | 0.00 | 100 | 1014.8 |
| 20260906063904 | 65 | 274 | 0.0 | 0.0 | 0.00 | 2.05 | 0.00 | 100 | 1014.9 |
| 20260906063404 | 65 | 274 | 0.0 | 0.0 | 0.00 | 2.05 | 0.00 | 100 | 1014.9 |
| 20260906063006 | 65 | 274 | 0.0 | 0.0 | 0.00 | 2.05 | 0.00 | 98 | 1015.8 |
| 20260906062904 | 65 | 274 | 0.0 | 0.0 | 0.00 | 2.05 | 0.00 | 100 | 1014.9 |
| 20260906061904 | 65 | 274 | 0.0 | 0.0 | 0.00 | 2.05 | 0.00 | 100 | 1014.8 |
| 20260906061512 | 65 | 274 | 0.0 | 0.0 | 0.00 | 2.05 | 0.00 | 98 | 1015.7 |
| 20260906061404 | 65 | 274 | 0.0 | 0.0 | 0.00 | 2.05 | 0.00 | 100 | 1014.9 |
| 20260906060904 | 65 | 274 | 0.0 | 0.0 | 0.00 | 2.05 | 0.00 | 100 | 1014.8 |
| 20260906060404 | 65 | 274 | 0.0 | 0.0 | 0.00 | 2.05 | 0.00 | 100 | 1014.7 |
| 20260906060026 | 65 | 274 | 0.0 | 0.0 | 0.00 | 2.05 | 0.00 | 98 | 1015.5 |
| 20260906055904 | 65 | 274 | 0.0 | 0.0 | 0.00 | 2.05 | 0.00 | 100 | 1014.7 |
| 20260906054904 | 65 | 318 | 0.0 | 2.0 | 0.00 | 2.05 | 0.00 | 100 | 1014.7 |
| 20260906054530 | 65 | 318 | 0.0 | 3.0 | 0.00 | 2.05 | 0.00 | 98 | 1015.5 |
| 20260906053904 | 65 | 318 | 1.0 | 3.0 | 0.00 | 2.05 | 0.00 | 96 | 1014.6 |
| 20260906053404 | 65 | 298 | 2.0 | 3.0 | 0.00 | 2.05 | 0.00 | 96 | 1014.7 |
| 20260906053033 | 65 | 282 | 1.0 | 3.0 | 0.00 | 2.05 | 0.00 | 98 | 1015.5 |
| 20260906052903 | 65 | 282 | 1.0 | 3.0 | 0.00 | 2.05 | 0.00 | 96 | 1014.6 |
| 20260906052403 | 65 | 260 | 1.0 | 3.0 | 0.00 | 2.05 | 0.00 | 96 | 1014.7 |
| 20260906051904 | 66 | 258 | 1.0 | 3.0 | 0.00 | 2.05 | 0.00 | 96 | 1014.8 |
| 20260906051511 | 65 | 258 | 1.0 | 3.0 | 0.00 | 2.05 | 0.00 | 98 | 1015.6 |
| 20260906051404 | 66 | 258 | 1.0 | 2.0 | 0.00 | 2.05 | 0.00 | 96 | 1014.8 |
| 20260906050904 | 66 | 258 | 0.0 | 0.0 | 0.00 | 2.05 | 0.00 | 96 | 1014.9 |
| 20260906050030 | 65 | 169 | 0.0 | 1.0 | 0.00 | 2.05 | 0.00 | 98 | 1015.6 |
| 20260906045903 | 66 | 169 | 0.0 | 0.0 | 0.00 | 2.05 | 0.00 | 96 | 1014.8 |
| 20260906045404 | 66 | 167 | 1.0 | 1.0 | 0.00 | 2.05 | 0.00 | 96 | 1014.8 |
| 20260906044532 | 66 | 167 | 0.0 | 1.0 | 0.00 | 2.05 | 0.00 | 98 | 1015.6 |
| 20260906044403 | 66 | 167 | 0.0 | 1.0 | 0.00 | 2.05 | 0.00 | 96 | 1014.9 |
| 20260906043403 | 66 | 167 | 0.0 | 1.0 | 0.00 | 2.05 | 0.00 | 96 | 1015.0 |
| 20260906043027 | 66 | 167 | 0.0 | 1.0 | 0.00 | 2.05 | 0.00 | 98 | 1015.7 |
| 20260906042904 | 66 | 167 | 0.0 | 1.0 | 0.00 | 2.05 | 0.00 | 96 | 1014.9 |
| 20260906042404 | 66 | 167 | 0.0 | 1.0 | 0.00 | 2.05 | 0.00 | 96 | 1015.1 |
| 20260906041903 | 66 | 167 | 0.0 | 0.0 | 0.00 | 2.05 | 0.00 | 96 | 1015.1 |
| 20260906041534 | 66 | 167 | 0.0 | 1.0 | 0.00 | 2.05 | 0.00 | 98 | 1016.0 |
| 20260906041404 | 66 | 167 | 0.0 | 1.0 | 0.00 | 2.05 | 0.00 | 96 | 1015.2 |
| 20260906040904 | 66 | 167 | 0.0 | 1.0 | 0.00 | 2.05 | 0.00 | 96 | 1015.1 |
| 20260906040018 | 66 | 167 | 0.0 | 0.0 | 0.00 | 2.05 | 0.00 | 97 | 1016.0 |
| 20260906035904 | 66 | 167 | 0.0 | 0.0 | 0.00 | 2.05 | 2.05 | 96 | 1015.1 |
| 20260906035404 | 66 | 167 | 0.0 | 1.0 | 0.00 | 2.05 | 2.05 | 96 | 1015.2 |
| 20260906034904 | 66 | 167 | 0.0 | 1.0 | 0.01 | 2.05 | 2.05 | 96 | 1015.2 |
| 20260906034517 | 66 | 167 | 0.0 | 3.0 | 0.01 | 2.05 | 2.05 | 97 | 1016.1 |
| 20260906034404 | 66 | 167 | 0.0 | 2.0 | 0.01 | 2.05 | 2.05 | 96 | 1015.3 |
| 20260906033903 | 66 | 167 | 1.0 | 2.0 | 0.01 | 2.05 | 2.05 | 96 | 1015.4 |
| 20260906033404 | 66 | 177 | 0.0 | 3.0 | 0.01 | 2.05 | 2.05 | 96 | 1015.5 |
| 20260906033036 | 66 | 177 | 1.0 | 3.0 | 0.01 | 2.05 | 2.05 | 98 | 1016.3 |
| 20260906032403 | 67 | 276 | 1.0 | 2.0 | 0.01 | 2.05 | 2.05 | 96 | 1015.5 |
| 20260906031904 | 67 | 276 | 1.0 | 2.0 | 0.01 | 2.05 | 2.05 | 96 | 1015.6 |
| 20260906031529 | 66 | 276 | 0.0 | 3.0 | 0.01 | 2.05 | 2.05 | 97 | 1016.4 |
| 20260906031404 | 67 | 276 | 1.0 | 2.0 | 0.01 | 2.05 | 2.05 | 96 | 1015.6 |
| 20260906030404 | 67 | 311 | 2.0 | 2.0 | 0.02 | 2.05 | 2.05 | 96 | 1015.5 |
| 20260906030030 | 66 | 327 | 1.0 | 2.0 | 0.03 | 2.05 | 2.05 | 97 | 1016.4 |
| 20260906025903 | 67 | 327 | 1.0 | 2.0 | 0.04 | 2.05 | 2.05 | 96 | 1015.5 |
| 20260906025404 | 67 | 327 | 0.0 | 2.0 | 0.10 | 2.05 | 2.05 | 96 | 1015.6 |
| 20260906024903 | 67 | 327 | 1.0 | 2.0 | 0.20 | 2.04 | 2.04 | 96 | 1015.8 |
| 20260906024515 | 66 | 327 | 0.0 | 2.0 | 0.31 | 2.04 | 2.04 | 97 | 1016.6 |
| 20260906024404 | 67 | 327 | 0.0 | 2.0 | 0.34 | 2.04 | 2.04 | 96 | 1015.7 |
| 20260906023904 | 66 | 193 | 0.0 | 0.0 | 0.44 | 2.04 | 2.04 | 96 | 1015.5 |
| 20260906023404 | 66 | 193 | 0.0 | 0.0 | 0.60 | 2.04 | 2.04 | 95 | 1015.6 |
| 20260906023019 | 66 | 193 | 0.0 | 4.0 | 0.69 | 2.04 | 2.04 | 97 | 1016.4 |
| 20260906022904 | 67 | 193 | 0.0 | 3.0 | 0.71 | 2.04 | 2.04 | 95 | 1015.6 |
| 20260906022404 | 67 | 193 | 3.0 | 5.0 | 0.81 | 2.04 | 2.04 | 96 | 1015.7 |
| 20260906021903 | 67 | 148 | 1.0 | 2.0 | 0.85 | 2.04 | 2.04 | 95 | 1015.8 |
| 20260906021528 | 66 | 148 | 0.0 | 3.0 | 0.86 | 2.04 | 2.04 | 97 | 1016.5 |
| 20260906021403 | 67 | 148 | 0.0 | 3.0 | 0.86 | 2.04 | 2.04 | 95 | 1015.7 |
| 20260906020904 | 67 | 144 | 2.0 | 3.0 | 0.85 | 2.03 | 2.03 | 95 | 1015.8 |
| 20260906020404 | 67 | 155 | 2.0 | 5.0 | 0.85 | 2.03 | 2.03 | 95 | 1015.7 |
| 20260906020031 | 67 | 136 | 3.0 | 8.0 | 0.85 | 2.02 | 2.02 | 97 | 1016.5 |
| 20260906015903 | 67 | 144 | 5.0 | 6.0 | 0.84 | 2.01 | 2.01 | 95 | 1015.7 |
| 20260906015404 | 68 | 140 | 5.0 | 8.0 | 0.78 | 1.95 | 1.95 | 95 | 1015.7 |
| 20260906014535 | 68 | 61 | 4.0 | 13.0 | 0.58 | 1.73 | 1.73 | 96 | 1016.5 |
| 20260906014404 | 68 | 108 | 7.0 | 13.0 | 0.56 | 1.70 | 1.70 | 94 | 1015.6 |
| 20260906013903 | 69 | 115 | 3.0 | 9.0 | 0.48 | 1.60 | 1.60 | 95 | 1015.4 |
| 20260906013020 | 69 | 126 | 2.0 | 6.0 | 0.44 | 1.35 | 1.35 | 96 | 1016.0 |
| 20260906012904 | 69 | 102 | 2.0 | 5.0 | 0.46 | 1.33 | 1.33 | 95 | 1015.0 |
| 20260906012404 | 69 | 120 | 1.0 | 2.0 | 0.40 | 1.23 | 1.23 | 95 | 1014.8 |
| 20260906011904 | 69 | 140 | 1.0 | 1.0 | 0.36 | 1.19 | 1.19 | 95 | 1014.6 |
| 20260906011533 | 69 | 140 | 0.0 | 1.0 | 0.35 | 1.17 | 1.17 | 96 | 1015.5 |
| 20260906011403 | 69 | 140 | 0.0 | 1.0 | 0.35 | 1.18 | 1.18 | 94 | 1014.5 |
| 20260906010404 | 69 | 140 | 1.0 | 3.0 | 0.35 | 1.18 | 1.18 | 94 | 1014.3 |
| 20260906010031 | 69 | 140 | 2.0 | 4.0 | 0.34 | 1.16 | 1.16 | 95 | 1015.3 |
| 20260906005904 | 69 | 143 | 3.0 | 3.0 | 0.34 | 1.17 | 1.17 | 94 | 1014.3 |
| 20260906005404 | 69 | 169 | 1.0 | 3.0 | 0.34 | 1.17 | 1.17 | 93 | 1014.4 |
| 20260906004904 | 70 | 115 | 2.0 | 6.0 | 0.32 | 1.15 | 1.15 | 92 | 1014.2 |
| 20260906004529 | 69 | 129 | 2.0 | 6.0 | 0.31 | 1.14 | 1.14 | 94 | 1015.1 |
| 20260906004404 | 70 | 150 | 2.0 | 5.0 | 0.31 | 1.14 | 1.14 | 92 | 1014.3 |
| 20260906003904 | 70 | 332 | 3.0 | 7.0 | 0.29 | 1.12 | 1.12 | 91 | 1014.0 |
| 20260906003404 | 70 | 99 | 8.0 | 12.0 | 0.23 | 1.06 | 1.06 | 89 | 1014.1 |
| 20260906003032 | 70 | 103 | 3.0 | 6.0 | 0.08 | 0.91 | 0.91 | 93 | 1015.0 |
| 20260906002904 | 71 | 98 | 2.0 | 5.0 | 0.04 | 0.87 | 0.87 | 91 | 1014.1 |
| 20260906002404 | 71 | 106 | 3.0 | 6.0 | 0.00 | 0.83 | 0.83 | 90 | 1014.0 |
| 20260906001522 | 70 | 352 | 0.0 | 3.0 | 0.00 | 0.83 | 0.83 | 91 | 1014.9 |
| 20260906001403 | 71 | 319 | 0.0 | 2.0 | 0.00 | 0.83 | 0.83 | 89 | 1013.9 |
| 20260906000903 | 71 | 314 | 2.0 | 3.0 | 0.00 | 0.83 | 0.83 | 89 | 1013.9 |
| 20260906000404 | 71 | 307 | 1.0 | 5.0 | 0.00 | 0.83 | 0.83 | 89 | 1013.9 |
| 20260906000028 | 71 | 263 | 1.0 | 4.0 | 0.00 | 0.83 | 0.83 | 91 | 1014.8 |
| 20260905235904 | 71 | 270 | 2.0 | 5.0 | 0.00 | 0.83 | 0.83 | 89 | 1013.8 |
| 20260905235404 | 71 | 293 | 2.0 | 5.0 | 0.00 | 0.83 | 0.83 | 89 | 1013.8 |
| 20260905234904 | 72 | 247 | 3.0 | 3.0 | 0.00 | 0.83 | 0.83 | 88 | 1013.9 |
| 20260905234530 | 72 | 296 | 2.0 | 3.0 | 0.00 | 0.83 | 0.83 | 89 | 1014.6 |
| 20260905234403 | 72 | 325 | 3.0 | 3.0 | 0.00 | 0.83 | 0.83 | 87 | 1013.9 |
| 20260905233902 | 73 | 303 | 2.0 | 5.0 | 0.00 | 0.83 | 0.83 | 87 | 1014.0 |
| 20260905233403 | 73 | 253 | 2.0 | 5.0 | 0.00 | 0.83 | 0.83 | 87 | 1014.0 |
| 20260905233009 | 73 | 306 | 1.0 | 3.0 | 0.00 | 0.83 | 0.83 | 87 | 1014.7 |
| 20260905232903 | 74 | 257 | 1.0 | 2.0 | 0.00 | 0.83 | 0.83 | 85 | 1014.1 |
| 20260905232403 | 74 | 255 | 1.0 | 2.0 | 0.00 | 0.83 | 0.83 | 83 | 1014.1 |
| 20260905231903 | 75 | 250 | 0.0 | 2.0 | 0.00 | 0.83 | 0.83 | 82 | 1014.2 |
| 20260905231514 | 75 | 250 | 0.0 | 4.0 | 0.00 | 0.83 | 0.83 | 83 | 1014.8 |
| 20260905231403 | 75 | 250 | 1.0 | 2.0 | 0.00 | 0.83 | 0.83 | 81 | 1014.2 |
| 20260905230902 | 76 | 242 | 2.0 | 3.0 | 0.00 | 0.83 | 0.83 | 79 | 1014.1 |
| 20260905230403 | 76 | 279 | 1.0 | 3.0 | 0.00 | 0.83 | 0.83 | 78 | 1014.2 |
| 20260905230026 | 76 | 336 | 1.0 | 7.0 | 0.00 | 0.83 | 0.83 | 80 | 1014.9 |
| 20260905225403 | 76 | 288 | 2.0 | 6.0 | 0.00 | 0.83 | 0.83 | 76 | 1014.3 |
| 20260905224505 | 76 | 313 | 0.0 | 2.0 | 0.00 | 0.83 | 0.83 | 75 | 1014.8 |
| 20260905224402 | 77 | 269 | 0.0 | 2.0 | 0.00 | 0.83 | 0.83 | 75 | 1014.0 |
| 20260905223903 | 77 | 339 | 0.0 | 2.0 | 0.00 | 0.83 | 0.83 | 75 | 1014.1 |
| 20260905223403 | 77 | 320 | 0.0 | 5.0 | 0.00 | 0.83 | 0.83 | 75 | 1014.1 |
| 20260905223007 | 76 | 320 | 2.0 | 8.0 | 0.00 | 0.83 | 0.83 | 76 | 1014.9 |
| 20260905222903 | 77 | 323 | 5.0 | 8.0 | 0.00 | 0.83 | 0.83 | 73 | 1014.1 |
| 20260905222403 | 77 | 315 | 5.0 | 8.0 | 0.00 | 0.83 | 0.83 | 73 | 1014.0 |
| 20260905221903 | 77 | 293 | 5.0 | 8.0 | 0.00 | 0.83 | 0.83 | 72 | 1014.1 |
| 20260905221517 | 77 | 313 | 3.0 | 8.0 | 0.00 | 0.83 | 0.83 | 74 | 1014.8 |
| 20260905221403 | 77 | 291 | 5.0 | 7.0 | 0.00 | 0.83 | 0.83 | 73 | 1014.1 |
| 20260905220903 | 78 | 303 | 3.0 | 8.0 | 0.00 | 0.83 | 0.83 | 71 | 1014.0 |
| 20260905220403 | 78 | 320 | 4.0 | 7.0 | 0.00 | 0.83 | 0.83 | 70 | 1013.7 |
| 20260905220018 | 77 | 219 | 4.0 | 13.0 | 0.00 | 0.83 | 0.83 | 72 | 1014.5 |
| 20260905215903 | 78 | 291 | 5.0 | 12.0 | 0.00 | 0.83 | 0.83 | 72 | 1013.6 |
| 20260905215403 | 78 | 324 | 6.0 | 13.0 | 0.00 | 0.83 | 0.83 | 72 | 1013.7 |
| 20260905214902 | 78 | 294 | 3.0 | 9.0 | 0.00 | 0.83 | 0.83 | 72 | 1013.7 |
| 20260905214526 | 77 | 325 | 4.0 | 9.0 | 0.00 | 0.83 | 0.83 | 74 | 1014.4 |
| 20260905214403 | 77 | 329 | 6.0 | 9.0 | 0.00 | 0.83 | 0.83 | 72 | 1013.7 |
| 20260905213903 | 78 | 325 | 4.0 | 10.0 | 0.00 | 0.83 | 0.83 | 72 | 1013.8 |
| 20260905213403 | 78 | 315 | 8.0 | 13.0 | 0.00 | 0.83 | 0.83 | 71 | 1013.7 |
| 20260905213007 | 77 | 318 | 4.0 | 11.0 | 0.00 | 0.83 | 0.83 | 73 | 1014.4 |
| 20260905211902 | 78 | 325 | 7.0 | 12.0 | 0.00 | 0.83 | 0.83 | 69 | 1013.4 |
| 20260905211507 | 78 | 304 | 5.0 | 10.0 | 0.00 | 0.83 | 0.83 | 72 | 1014.3 |
| 20260905211402 | 79 | 305 | 5.0 | 10.0 | 0.00 | 0.83 | 0.83 | 70 | 1013.4 |
| 20260905210903 | 79 | 327 | 6.0 | 9.0 | 0.00 | 0.83 | 0.83 | 69 | 1013.3 |
| 20260905210403 | 79 | 300 | 5.0 | 7.0 | 0.00 | 0.83 | 0.83 | 70 | 1013.4 |
| 20260905210014 | 78 | 360 | 3.0 | 10.0 | 0.00 | 0.83 | 0.83 | 71 | 1014.2 |
| 20260905205903 | 79 | 349 | 3.0 | 7.0 | 0.00 | 0.83 | 0.83 | 71 | 1013.4 |
| 20260905205402 | 78 | 266 | 6.0 | 10.0 | 0.00 | 0.83 | 0.83 | 69 | 1013.3 |
| 20260905204522 | 78 | 338 | 6.0 | 10.0 | 0.00 | 0.83 | 0.83 | 71 | 1014.3 |
| 20260905204403 | 78 | 317 | 6.0 | 10.0 | 0.00 | 0.83 | 0.83 | 70 | 1013.7 |
| 20260905203402 | 78 | 306 | 6.0 | 10.0 | 0.00 | 0.84 | 0.83 | 70 | 1013.5 |
| 20260905203028 | 78 | 323 | 7.0 | 12.0 | 0.00 | 0.84 | 0.83 | 70 | 1014.4 |
| 20260905202903 | 78 | 316 | 9.0 | 12.0 | 0.00 | 0.85 | 0.83 | 67 | 1013.6 |
| 20260905202403 | 78 | 304 | 7.0 | 12.0 | 0.00 | 0.85 | 0.83 | 67 | 1013.7 |
| 20260905201903 | 79 | 334 | 2.0 | 7.0 | 0.00 | 0.85 | 0.83 | 71 | 1013.6 |
| 20260905201530 | 78 | 24 | 4.0 | 7.0 | 0.00 | 0.86 | 0.83 | 70 | 1014.5 |
| 20260905201403 | 79 | 16 | 3.0 | 7.0 | 0.00 | 0.88 | 0.83 | 69 | 1013.6 |
| 20260905200903 | 78 | 13 | 2.0 | 7.0 | 0.00 | 0.90 | 0.83 | 70 | 1013.6 |
| 20260905200403 | 78 | 10 | 2.0 | 7.0 | 0.00 | 0.94 | 0.83 | 70 | 1013.7 |
| 20260905200013 | 78 | 319 | 6.0 | 11.0 | 0.00 | 0.99 | 0.83 | 70 | 1014.6 |
| 20260905195903 | 78 | 299 | 6.0 | 12.0 | 0.00 | 1.03 | 0.83 | 69 | 1013.9 |
| 20260905195402 | 78 | 300 | 5.0 | 9.0 | 0.00 | 1.37 | 0.83 | 70 | 1013.9 |
| 20260905194903 | 78 | 318 | 3.0 | 9.0 | 0.00 | 1.37 | 0.83 | 71 | 1014.0 |
| 20260905194518 | 78 | 309 | 4.0 | 11.0 | 0.00 | 1.37 | 0.83 | 73 | 1014.9 |
| 20260905193902 | 78 | 330 | 7.0 | 12.0 | 0.00 | 1.37 | 0.83 | 71 | 1014.2 |
| 20260905193027 | 78 | 324 | 4.0 | 10.0 | 0.00 | 1.37 | 0.83 | 73 | 1015.0 |
| 20260905192903 | 79 | 0 | 5.0 | 8.0 | 0.00 | 1.37 | 0.83 | 69 | 1014.3 |
| 20260905192402 | 79 | 12 | 4.0 | 10.0 | 0.00 | 1.37 | 0.83 | 69 | 1014.2 |
| 20260905191903 | 79 | 55 | 4.0 | 10.0 | 0.00 | 1.37 | 0.83 | 69 | 1014.2 |
| 20260905191530 | 78 | 19 | 3.0 | 9.0 | 0.00 | 1.37 | 0.83 | 71 | 1015.1 |
| 20260905191403 | 78 | 341 | 3.0 | 7.0 | 0.00 | 1.37 | 0.83 | 68 | 1014.3 |
| 20260905190903 | 78 | 344 | 5.0 | 7.0 | 0.00 | 1.37 | 0.83 | 68 | 1014.4 |
| 20260905190031 | 78 | 16 | 2.0 | 9.0 | 0.00 | 1.37 | 0.83 | 69 | 1015.2 |
| 20260905185903 | 79 | 51 | 4.0 | 9.0 | 0.00 | 1.37 | 0.83 | 67 | 1014.3 |
| 20260905185402 | 79 | 347 | 2.0 | 7.0 | 0.00 | 1.37 | 0.83 | 68 | 1014.4 |
| 20260905184903 | 78 | 306 | 2.0 | 9.0 | 0.00 | 1.37 | 0.83 | 70 | 1014.6 |
| 20260905184515 | 78 | 328 | 3.0 | 9.0 | 0.00 | 1.37 | 0.83 | 73 | 1015.4 |
| 20260905183903 | 79 | 16 | 4.0 | 9.0 | 0.00 | 1.37 | 0.83 | 67 | 1014.7 |
| 20260905183403 | 79 | 64 | 2.0 | 6.0 | 0.00 | 1.37 | 0.83 | 68 | 1014.8 |
| 20260905183020 | 78 | 223 | 2.0 | 9.0 | 0.00 | 1.37 | 0.83 | 71 | 1015.6 |
| 20260905182903 | 78 | 297 | 5.0 | 9.0 | 0.00 | 1.37 | 0.83 | 69 | 1014.8 |
| 20260905182403 | 77 | 292 | 2.0 | 6.0 | 0.00 | 1.37 | 0.83 | 71 | 1015.1 |
| 20260905181903 | 76 | 315 | 4.0 | 7.0 | 0.00 | 1.37 | 0.83 | 73 | 1015.2 |
| 20260905181529 | 76 | 303 | 5.0 | 12.0 | 0.00 | 1.37 | 0.83 | 72 | 1016.0 |
| 20260905181403 | 77 | 295 | 7.0 | 12.0 | 0.00 | 1.37 | 0.83 | 70 | 1015.4 |
| 20260905180902 | 77 | 52 | 1.0 | 5.0 | 0.00 | 1.37 | 0.83 | 71 | 1015.3 |
| 20260905180402 | 77 | 327 | 1.0 | 5.0 | 0.00 | 1.37 | 0.83 | 71 | 1015.3 |
| 20260905180032 | 77 | 334 | 3.0 | 9.0 | 0.00 | 1.37 | 0.83 | 72 | 1016.1 |
| 20260905175902 | 77 | 301 | 6.0 | 9.0 | 0.00 | 1.37 | 0.83 | 71 | 1015.4 |
| 20260905175402 | 77 | 312 | 2.0 | 9.0 | 0.00 | 1.37 | 0.83 | 72 | 1015.2 |
| 20260905174903 | 77 | 317 | 8.0 | 13.0 | 0.00 | 1.37 | 0.83 | 73 | 1015.3 |
| 20260905174541 | 76 | 327 | 4.0 | 15.0 | 0.00 | 1.37 | 0.83 | 75 | 1016.2 |
| 20260905174403 | 77 | 356 | 9.0 | 15.0 | 0.00 | 1.37 | 0.83 | 73 | 1015.4 |
| 20260905173002 | 76 | 289 | 6.0 | 11.0 | 0.00 | 1.37 | 0.83 | 76 | 1016.1 |
| 20260905172903 | 76 | 293 | 5.0 | 9.0 | 0.00 | 1.37 | 0.83 | 74 | 1015.5 |
| 20260905171902 | 76 | 17 | 6.0 | 10.0 | 0.00 | 1.37 | 0.83 | 74 | 1015.4 |
| 20260905171501 | 75 | 331 | 5.0 | 14.0 | 0.00 | 1.37 | 0.83 | 77 | 1016.3 |
| 20260905171403 | 75 | 315 | 6.0 | 12.0 | 0.00 | 1.37 | 0.83 | 76 | 1015.3 |
| 20260905170003 | 76 | 340 | 3.0 | 7.0 | 0.00 | 1.37 | 0.83 | 81 | 1016.1 |
| 20260905165403 | 76 | 320 | 3.0 | 6.0 | 0.00 | 1.37 | 0.83 | 76 | 1015.4 |
| 20260905164903 | 75 | 286 | 3.0 | 7.0 | 0.00 | 1.37 | 0.83 | 78 | 1015.3 |
| 20260905164502 | 74 | 346 | 5.0 | 10.0 | 0.00 | 1.37 | 0.83 | 79 | 1016.2 |
| 20260905163403 | 74 | 340 | 7.0 | 10.0 | 0.00 | 1.37 | 0.83 | 80 | 1015.6 |
| 20260905163002 | 73 | 334 | 4.0 | 14.0 | 0.00 | 1.37 | 0.83 | 81 | 1016.4 |
| 20260905162903 | 74 | 311 | 7.0 | 12.0 | 0.00 | 1.37 | 0.83 | 82 | 1015.8 |
| 20260905162402 | 74 | 331 | 8.0 | 14.0 | 0.00 | 1.37 | 0.83 | 84 | 1015.9 |
| 20260905161502 | 72 | 336 | 7.0 | 13.0 | 0.00 | 1.37 | 0.83 | 88 | 1016.6 |
| 20260905161403 | 73 | 342 | 9.0 | 13.0 | 0.00 | 1.37 | 0.83 | 87 | 1015.9 |
| 20260905160903 | 72 | 324 | 7.0 | 12.0 | 0.00 | 1.37 | 0.83 | 87 | 1016.0 |
| 20260905160002 | 71 | 272 | 0.0 | 4.0 | 0.00 | 1.37 | 0.83 | 90 | 1016.7 |
| 20260905155902 | 71 | 272 | 2.0 | 5.0 | 0.00 | 1.37 | 0.83 | 88 | 1016.0 |
| 20260905155403 | 71 | 112 | 2.0 | 5.0 | 0.00 | 1.37 | 0.83 | 91 | 1015.8 |
| 20260905154902 | 71 | 330 | 1.0 | 5.0 | 0.00 | 1.37 | 0.83 | 92 | 1015.7 |
| 20260905154502 | 70 | 340 | 3.0 | 8.0 | 0.00 | 1.37 | 0.83 | 94 | 1016.4 |
| 20260905154403 | 70 | 331 | 3.0 | 8.0 | 0.00 | 1.37 | 0.83 | 94 | 1015.6 |
| 20260905153402 | 69 | 280 | 6.0 | 8.0 | 0.00 | 1.37 | 0.83 | 95 | 1015.2 |
| 20260905153002 | 68 | 302 | 4.0 | 7.0 | 0.01 | 1.37 | 0.83 | 97 | 1016.0 |
| 20260905152902 | 68 | 281 | 5.0 | 7.0 | 0.01 | 1.37 | 0.83 | 96 | 1015.2 |
| 20260905152403 | 68 | 302 | 3.0 | 6.0 | 0.01 | 1.37 | 0.83 | 96 | 1015.2 |
| 20260905151506 | 67 | 285 | 1.0 | 4.0 | 0.02 | 1.37 | 0.83 | 98 | 1016.0 |
| 20260905151403 | 68 | 323 | 2.0 | 5.0 | 0.03 | 1.37 | 0.83 | 96 | 1015.3 |
| 20260905150403 | 67 | 305 | 2.0 | 6.0 | 0.05 | 1.37 | 0.83 | 96 | 1015.7 |
| 20260905150002 | 67 | 329 | 2.0 | 5.0 | 0.06 | 1.37 | 0.83 | 98 | 1016.7 |
| 20260905145903 | 67 | 293 | 2.0 | 5.0 | 0.06 | 1.37 | 0.83 | 96 | 1015.9 |
| 20260905145403 | 67 | 263 | 0.0 | 1.0 | 0.07 | 1.37 | 0.83 | 100 | 1016.0 |
| 20260905144903 | 67 | 263 | 1.0 | 2.0 | 0.08 | 1.37 | 0.83 | 100 | 1016.2 |
| 20260905144503 | 67 | 199 | 0.0 | 2.0 | 0.08 | 1.37 | 0.83 | 98 | 1017.2 |
| 20260905144403 | 67 | 199 | 0.0 | 2.0 | 0.08 | 1.37 | 0.83 | 100 | 1016.2 |
| 20260905143902 | 67 | 199 | 1.0 | 2.0 | 0.09 | 1.37 | 0.83 | 100 | 1016.5 |
| 20260905143402 | 67 | 199 | 0.0 | 1.0 | 0.10 | 1.37 | 0.83 | 100 | 1016.7 |
| 20260905143003 | 67 | 199 | 0.0 | 2.0 | 0.10 | 1.36 | 0.82 | 98 | 1017.6 |
| 20260905142903 | 67 | 199 | 0.0 | 1.0 | 0.10 | 1.36 | 0.82 | 100 | 1016.7 |
| 20260905142403 | 67 | 199 | 1.0 | 2.0 | 0.12 | 1.36 | 0.82 | 100 | 1016.8 |
| 20260905141903 | 67 | 305 | 0.0 | 1.0 | 0.13 | 1.35 | 0.81 | 100 | 1016.9 |
| 20260905141503 | 67 | 305 | 0.0 | 2.0 | 0.14 | 1.35 | 0.81 | 98 | 1017.8 |
| 20260905141402 | 67 | 305 | 1.0 | 2.0 | 0.13 | 1.34 | 0.80 | 100 | 1017.0 |
| 20260905140903 | 67 | 305 | 1.0 | 2.0 | 0.13 | 1.33 | 0.79 | 100 | 1017.2 |
| 20260905140003 | 66 | 126 | 0.0 | 4.0 | 0.14 | 1.31 | 0.77 | 98 | 1017.9 |
| 20260905135903 | 67 | 126 | 1.0 | 3.0 | 0.15 | 1.31 | 0.77 | 96 | 1017.0 |
| 20260905135403 | 67 | 138 | 3.0 | 5.0 | 0.18 | 1.30 | 0.76 | 96 | 1017.2 |
| 20260905134902 | 67 | 124 | 1.0 | 3.0 | 0.32 | 1.29 | 0.75 | 96 | 1017.8 |
| 20260905134503 | 67 | 247 | 0.0 | 3.0 | 0.52 | 1.29 | 0.75 | 98 | 1018.5 |
| 20260905134402 | 67 | 241 | 1.0 | 3.0 | 0.58 | 1.29 | 0.75 | 96 | 1017.9 |
| 20260905133902 | 67 | 225 | 2.0 | 3.0 | 0.69 | 1.28 | 0.74 | 96 | 1017.8 |
| 20260905133403 | 67 | 230 | 1.0 | 5.0 | 0.69 | 1.27 | 0.73 | 96 | 1017.8 |
| 20260905133005 | 67 | 277 | 2.0 | 5.0 | 0.68 | 1.26 | 0.72 | 98 | 1018.4 |
| 20260905132903 | 67 | 229 | 2.0 | 5.0 | 0.68 | 1.26 | 0.72 | 96 | 1017.7 |
| 20260905132403 | 67 | 231 | 1.0 | 6.0 | 0.66 | 1.24 | 0.70 | 96 | 1017.5 |
| 20260905131903 | 67 | 213 | 1.0 | 6.0 | 0.64 | 1.22 | 0.68 | 96 | 1017.3 |
| 20260905131503 | 67 | 219 | 1.0 | 9.0 | 0.63 | 1.21 | 0.67 | 98 | 1017.9 |
| 20260905131403 | 67 | 308 | 2.0 | 9.0 | 0.63 | 1.21 | 0.67 | 96 | 1017.0 |
| 20260905130903 | 67 | 235 | 2.0 | 6.0 | 0.62 | 1.20 | 0.66 | 100 | 1017.0 |
| 20260905130403 | 67 | 325 | 5.0 | 8.0 | 0.61 | 1.18 | 0.64 | 100 | 1017.1 |
| 20260905130004 | 67 | 261 | 2.0 | 12.0 | 0.60 | 1.16 | 0.63 | 98 | 1017.8 |
| 20260905125902 | 67 | 274 | 3.0 | 12.0 | 0.59 | 1.16 | 0.62 | 100 | 1016.9 |
| 20260905125402 | 67 | 347 | 5.0 | 12.0 | 0.57 | 1.12 | 0.58 | 100 | 1017.2 |
| 20260905124902 | 67 | 251 | 7.0 | 20.0 | 0.42 | 0.97 | 0.43 | 100 | 1017.3 |
| 20260905124503 | 66 | 324 | 3.0 | 9.0 | 0.22 | 0.77 | 0.23 | 99 | 1018.0 |
| 20260905124403 | 66 | 297 | 6.0 | 8.0 | 0.16 | 0.71 | 0.17 | 100 | 1016.6 |
| 20260905123403 | 66 | 161 | 0.0 | 0.0 | 0.03 | 0.58 | 0.04 | 100 | 1015.5 |